Regional Weather Roundup
Issued by NWS

Home | Current Version | Previous Version | Graphics & Text | Print | Product List | Glossary On
Versions: 1 2 3 4 5 6 7 8 9 10 11 12 13 14 15 16 17 18 19 20 21 22 23 24 25 26 27 28 29 30 31 32 33 34 35 36 37 38 39 40 41 42 43 44 45 46 47 48 49 50
000
ASUS45 KSLC 251210
RWRUT

UTAH REGIONAL WEATHER ROUNDUP
NATIONAL WEATHER SERVICE SALT LAKE CITY UT
600 AM MDT MON MAY 25 2015

UTZ001>011-023>025-251300-

NORTHERN UTAH

CITY           SKY/WX    TMP DP  RH WIND       PRES   REMARKS
BRIGHAM CITY   CLOUDY    54  50  87 CALM      29.94R
HILL AFB       MOCLDY    49  46  87 E8        29.94R
LOGAN          CLOUDY    51  50  97 CALM      29.94R
OGDEN          CLOUDY    50  46  86 S6        29.93S
PROVO AIRPORT  CLOUDY    52  46  82 CALM      29.96S
SALT LAKE CITY MOCLDY    53  49  86 S3        29.93R
VERNAL         CLOUDY    47  44  90 CALM      29.97R
WENDOVER       PTCLDY    52  45  76 E5        29.93R
HEBER CITY     CLOUDY    45  41  87 CALM      29.98S
WEST JORDAN    CLOUDY    50  48  93 CALM      29.95R

$$

UTZ012>022-026-027-251300-

SOUTHERN/CENTRAL UTAH

CITY           SKY/WX    TMP DP  RH WIND       PRES   REMARKS
BLANDING       PTCLDY    44  42  93 N5        30.04S
BRYCE CANYON   MOCLDY    40  37  89 N6        30.05S
CEDAR CITY     MOCLDY    44  42  93 SW3       30.00R
DELTA          CLOUDY    47  45  91 S6        29.96S
HANKSVILLE     MOCLDY    52  45  76 CALM      29.94R
MILFORD        CLEAR     44  41  89 S7        29.97S
MOAB/CYNLANDS  CLEAR     48  43  82 SE5       29.91S
PRICE          CLOUDY    47  37  68 N6        29.95S
ST GEORGE      PTSUNNY   55  48  76 N5        29.96R
KANAB          CLOUDY    48  48 100 CALM      30.04S

$$

REGIONAL REPORTS     COLORADO/ARIZONA

CITY           SKY/WX    TMP DP  RH WIND       PRES   REMARKS
CRAIG, CO      LGT RAIN  44  41  89 CALM      29.98R
GRAND JUNCTION CLOUDY    47  46  97 SE8       29.96R
RIFLE          CLOUDY    45  41  86 CALM      29.98R
MONTROSE       CLOUDY    45  41  86 S5        30.01R
CORTEZ         CLOUDY    47  44  90 NE3       29.98S
PAGE, AZ       MOCLDY    55  47  74 CALM      29.94R
GRAND CANYON   LGT RAIN  45  43  93 VRB3      30.07R
KINGMAN        PTCLDY    51  48  89 SE3       29.95S
FLAGSTAFF      CLOUDY    43  39  86 W3        30.07S

$$

REGIONAL REPORTS    NEVADA/IDAHO/WYOMING

CITY           SKY/WX    TMP DP  RH WIND       PRES   REMARKS
LAS VEGAS, NV  PTCLDY    63  55  75 S7        29.87S
ELY            CLEAR     34  33  96 S10       30.04S WCI  26
ELKO           CLOUDY    45  43  93 CALM      29.98S
POCATELLO, ID  CLEAR     45  44  97 S7        29.94R
BURLEY         CLOUDY    47  43  86 CALM      29.91S
EVANSTON, WY   LGT RAIN  41  40  96 SW5       29.99S
ROCK SPRINGS   CLOUDY    41  39  93 S3        29.99S
KEMMERER       CLOUDY    41  37  87 CALM      30.00S

$$



USA.gov is the U.S. government's official web portal to all federal, state and local government web resources and services.